Location: Unspecified
(0.0000°N, 0.0000°E)
Time: 04:12:48
(UTC+00:00)

CZ-4C DEB - Pass Details

Date: 16 March 2026
Orbit: 805 x 1381 km, 63.4° (Epoch: 15 April)

Event Time Altitude Azimuth Distance (km) Brightness Sun altitude
Rises 19:06:17 0° 339° (NNW) 4,219 ? -14.4°
Reaches altitude 10° 19:09:00 10° 339° (NNW) 3,310 ? -15.1°
Maximum altitude 19:17:15 84° 67° (ENE) 1,377 ? -17.2°
Drops below altitude 10° 19:25:50 10° 155° (SSE) 3,439 ? -19.3°
Sets 19:28:43 0° 156° (SSE) 4,391 ? -20.0°
